QPF
0.02 0.01 0.01 0.01 0.01 0.02 0.04 0.05 0.04 0.03 0.03 0.05 0.05 0.06 0.07 0.05 0.05 0.04 0.03 0.02 0.03 0.04 0.03 0.02 0.02 0.02 0.02 0.02 0.03 0.04 0.03 0.02 0.02 0.02 0.02 0.02 0.02 0.02 0.02 0.01 0.01 0.01 0.01 0.01
0.02 0.02 0.02 0.02 0.02 0.02 0.02 0.03 0.03 0.02 0.03 0.06 0.07 0.06 0.06 0.06 0.05 0.03 0.02 0.01 0.01 0.01 0.01 0.02 0.02 0.03 0.03 0.03 0.04 0.04 0.04 0.02 0.02 0.02 0.02 0.02 0.02 0.02 0.01 0.01 0.01 0.01 0.01 0.01
0.02 0.01 0.02 0.02 0.02 0.02 0.02 0.02 0.02 0.02 0.03 0.04 0.07 0.06 0.07 0.07 0.05 0.03 0.02 0.01 0.01 0.01 0.01 0.01 0.02 0.03 0.03 0.05 0.06 0.05 0.04 0.04 0.03 0.02 0.03 0.03 0.03 0.03 0.02 0.01 0.01 0.01 0.01 0.01
0.04 0.03 0.04 0.03 0.03 0.03 0.02 0.02 0.02 0.02 0.03 0.03 0.04 0.04 0.05 0.05 0.05 0.03 0.02 0.01 0.01 0.01 0.01 0.01 0.02 0.02 0.04 0.05 0.07 0.05 0.04 0.05 0.05 0.05 0.05 0.05 0.05 0.05 0.04 0.02 0.02 0.01 0.01 0.01
0.05 0.05 0.05 0.03 0.03 0.03 0.03 0.04 0.03 0.03 0.03 0.03 0.04 0.05 0.05 0.04 0.04 0.04 0.02 0.01 0.02 0.01 0.01 0.01 0.01 0.02 0.03 0.04 0.03 0.03 0.03 0.04 0.05 0.06 0.07 0.07 0.07 0.08 0.05 0.03 0.02 0.02 0.01 0.01
0.05 0.06 0.06 0.04 0.02 0.02 0.03 0.04 0.04 0.04 0.07 0.04 0.05 0.06 0.05 0.04 0.04 0.04 0.03 0.03 0.02 0.02 0.02 0.01 0.02 0.02 0.02 0.02 0.02 0.02 0.02 0.03 0.04 0.05 0.06 0.06 0.08 0.09 0.07 0.04 0.03 0.01 0.01 0.01
0.06 0.07 0.05 0.03 0.02 0.02 0.03 0.04 0.05 0.04 0.04 0.04 0.03 0.03 0.03 0.04 0.05 0.04 0.05 0.04 0.03 0.03 0.02 0.02 0.02 0.02 0.02 0.02 0.02 0.02 0.02 0.03 0.03 0.05 0.06 0.06 0.06 0.07 0.07 0.05 0.02 0.01 0.01 0.00
0.05 0.05 0.04 0.02 0.03 0.03 0.03 0.02 0.03 0.03 0.03 0.04 0.03 0.04 0.04 0.03 0.03 0.04 0.05 0.04 0.03 0.03 0.03 0.02 0.02 0.02 0.02 0.01 0.01 0.01 0.02 0.02 0.02 0.03 0.04 0.04 0.04 0.04 0.04 0.04 0.02 0.01 0.01 0.01
0.04 0.04 0.02 0.02 0.02 0.03 0.04 0.03 0.02 0.02 0.03 0.04 0.05 0.04 0.03 0.04 0.04 0.05 0.07 0.06 0.04 0.04 0.04 0.03 0.03 0.02 0.02 0.01 0.01 0.01 0.02 0.02 0.02 0.03 0.03 0.03 0.03 0.03 0.02 0.02 0.03 0.02 0.01 0.01
0.04 0.03 0.02 0.02 0.04 0.04 0.02 0.02 0.02 0.02 0.02 0.03 0.04 0.06 0.07 0.06 0.05 0.05 0.07 0.08 0.06 0.05 0.05 0.05 0.04 0.02 0.01 0.01 0.01 0.01 0.02 0.02 0.01 0.01 0.02 0.02 0.02 0.02 0.02 0.02 0.02 0.02 0.01 0.01
0.07 0.04 0.06 0.06 0.04 0.03 0.02 0.02 0.02 0.02 0.02 0.02 0.02 0.03 0.03 0.03 0.04 0.05 0.05 0.07 0.06 0.06 0.05 0.05 0.03 0.02 0.02 0.02 0.02 0.02 0.02 0.01 0.01 0.02 0.01 0.01 0.01 0.02 0.02 0.03 0.03 0.02 0.01 0.01
0.05 0.04 0.06 0.03 0.03 0.03 0.03 0.03 0.03 0.03 0.02 0.01 0.01 0.03 0.03 0.03 0.03 0.05 0.05 0.06 0.06 0.05 0.05 0.04 0.03 0.02 0.02 0.03 0.03 0.03 0.03 0.02 0.02 0.01 0.01 0.01 0.00 0.01 0.02 0.02 0.03 0.02 0.01 0.01
0.05 0.04 0.03 0.02 0.02 0.02 0.02 0.03 0.03 0.01 0.01 0.01 0.02 0.05 0.05 0.05 0.05 0.05 0.05 0.06 0.07 0.06 0.04 0.03 0.02 0.02 0.02 0.03 0.04 0.05 0.04 0.04 0.02 0.01 0.01 0.00 0.00 0.00 0.01 0.01 0.02 0.02 0.01 0.01
0.05 0.03 0.02 0.02 0.02 0.02 0.02 0.02 0.01 0.01 0.01 0.01 0.01 0.03 0.03 0.04 0.04 0.04 0.03 0.05 0.06 0.03 0.02 0.01 0.01 0.01 0.01 0.02 0.03 0.04 0.04 0.03 0.02 0.01 0.01 0.00 0.00 0.00 0.01 0.01 0.01 0.01 0.01 0.01
0.05 0.03 0.02 0.01 0.01 0.01 0.02 0.02 0.02 0.01 0.01 0.01 0.01 0.02 0.02 0.03 0.04 0.03 0.03 0.03 0.03 0.02 0.02 0.01 0.00 0.01 0.01 0.01 0.02 0.02 0.02 0.02 0.01 0.01 0.01 0.00 0.00 0.00 0.01 0.01 0.01 0.01 0.01 0.01
0.05 0.04 0.02 0.01 0.01 0.01 0.01 0.02 0.02 0.02 0.03 0.02 0.02 0.02 0.02 0.02 0.03 0.02 0.03 0.03 0.03 0.03 0.01 0.01 0.00 0.01 0.01 0.01 0.01 0.01 0.01 0.01 0.01 0.01 0.00 0.00 0.01 0.01 0.01 0.01 0.01 0.01 0.01 0.02
0.02 0.02 0.02 0.02 0.01 0.01 0.01 0.02 0.02 0.02 0.03 0.04 0.04 0.03 0.03 0.02 0.02 0.01 0.02 0.03 0.02 0.01 0.01 0.00 0.00 0.01 0.01 0.01 0.01 0.01 0.01 0.01 0.01 0.00 0.00 0.00 0.00 0.00 0.01 0.01 0.01 0.01 0.01 0.02
0.02 0.02 0.02 0.01 0.01 0.01 0.01 0.01 0.02 0.02 0.03 0.03 0.03 0.02 0.02 0.02 0.02 0.02 0.02 0.01 0.01 0.01 0.01 0.00 0.00 0.00 0.01 0.01 0.01 0.01 0.01 0.00 0.00 0.00 0.00 0.00 0.00 0.00 0.00 0.01 0.01 0.01 0.01 0.01
0.01 0.02 0.01 0.02 0.02 0.02 0.02 0.02 0.02 0.02 0.03 0.03 0.02 0.01 0.01 0.01 0.00 0.01 0.03 0.02 0.01 0.01 0.01 0.00 0.00 0.00 0.01 0.01 0.01 0.01 0.01 0.00 0.00 0.00 0.00 0.00 0.00 0.00 0.00 0.01 0.01 0.01 0.01 0.01
0.01 0.01 0.02 0.02 0.02 0.02 0.02 0.02 0.02 0.02 0.02 0.02 0.01 0.01 0.01 0.01 0.01 0.01 0.02 0.02 0.01 0.01 0.01 0.00 0.00 0.00 0.01 0.01 0.01 0.01 0.00 0.00 0.00 0.00 0.00 0.00 0.00 0.00 0.00 0.01 0.01 0.01 0.01 0.02
0.01 0.00 0.00 0.00 0.01 0.01 0.01 0.01 0.01 0.02 0.02 0.01 0.01 0.01 0.01 0.00 0.00 0.01 0.03 0.04 0.03 0.02 0.01 0.00 0.00 0.01 0.01 0.01 0.01 0.00 0.00 0.00 0.00 0.00 0.00 0.00 0.00 0.00 0.01 0.01 0.01 0.01 0.02 0.03
0.01 0.01 0.01 0.00 0.00 0.00 0.01 0.01 0.01 0.01 0.02 0.01 0.01 0.00 0.00 0.00 0.00 0.00 0.01 0.01 0.02 0.02 0.01 0.00 0.00 0.01 0.01 0.01 0.01 0.00 0.00 0.00 0.00 0.00 0.00 0.00 0.00 0.01 0.01 0.01 0.01 0.02 0.02 0.02
0.01 0.01 0.01 0.01 0.01 0.01 0.01 0.02 0.01 0.02 0.01 0.01 0.00 0.00 0.00 0.00 0.00 0.00 0.00 0.01 0.01 0.02 0.01 0.01 0.01 0.01 0.01 0.01 0.00 0.00 0.00 0.00 0.00 0.00 0.01 0.02 0.01 0.01 0.01 0.01 0.02 0.02 0.02 0.02
0.01 0.01 0.01 0.01 0.01 0.02 0.02 0.02 0.02 0.01 0.00 0.00 0.00 0.00 0.01 0.00 0.00 0.00 0.00 0.01 0.02 0.02 0.02 0.01 0.01 0.01 0.01 0.01 0.00 0.00 0.00 0.00 0.01 0.01 0.02 0.02 0.01 0.01 0.01 0.01 0.01 0.01 0.01 0.01
0.01 0.01 0.00 0.00 0.01 0.01 0.02 0.04 0.02 0.01 0.00 0.00 0.01 0.01 0.01 0.01 0.00 0.00 0.00 0.01 0.02 0.03 0.02 0.01 0.01 0.01 0.01 0.00 0.00 0.00 0.00 0.01 0.02 0.02 0.01 0.01 0.01 0.01 0.01 0.01 0.01 0.01 0.01 0.02
0.00 0.00 0.00 0.00 0.01 0.00 0.01 0.03 0.04 0.01 0.01 0.01 0.03 0.02 0.03 0.02 0.01 0.00 0.00 0.01 0.02 0.02 0.01 0.01 0.01 0.00 0.00 0.00 0.00 0.00 0.00 0.01 0.01 0.01 0.01 0.01 0.01 0.01 0.01 0.01 0.01 0.02 0.02 0.02
0.00 0.00 0.00 0.00 0.01 0.01 0.01 0.02 0.03 0.02 0.02 0.03 0.02 0.01 0.01 0.01 0.01 0.01 0.01 0.01 0.01 0.01 0.00 0.00 0.00 0.00 0.00 0.00 0.00 0.00 0.01 0.00 0.00 0.00 0.01 0.01 0.01 0.01 0.01 0.01 0.01 0.01 0.01 0.01
MSLP
1011.02 1011.00 1010.97 1010.94 1010.93 1010.96 1011.02 1011.13 1011.29 1011.50 1011.77 1012.08 1012.46 1012.90 1013.39 1013.93 1014.49 1015.07 1015.62 1016.13 1016.58 1016.95 1017.24 1017.44 1017.57 1017.64 1017.66 1017.65 1017.61 1017.57 1017.53 1017.48 1017.43 1017.39 1017.34 1017.30 1017.25 1017.18 1017.10 1016.99 1016.83 1016.62 1016.36 1016.06
1011.10 1011.01 1010.85 1010.66 1010.48 1010.33 1010.25 1010.28 1010.42 1010.68 1011.06 1011.55 1012.12 1012.74 1013.39 1014.04 1014.66 1015.22 1015.71 1016.13 1016.46 1016.72 1016.91 1017.05 1017.15 1017.21 1017.25 1017.27 1017.28 1017.27 1017.25 1017.22 1017.19 1017.15 1017.11 1017.06 1017.01 1016.95 1016.86 1016.73 1016.55 1016.31 1016.02 1015.67
1011.04 1010.88 1010.63 1010.34 1010.03 1009.78 1009.62 1009.60 1009.75 1010.07 1010.55 1011.17 1011.89 1012.65 1013.41 1014.13 1014.76 1015.30 1015.73 1016.05 1016.29 1016.45 1016.57 1016.66 1016.73 1016.80 1016.86 1016.91 1016.96 1016.99 1017.00 1016.99 1016.97 1016.93 1016.90 1016.85 1016.79 1016.72 1016.61 1016.46 1016.25 1015.97 1015.63 1015.24
1010.83 1010.61 1010.29 1009.93 1009.56 1009.26 1009.07 1009.05 1009.23 1009.61 1010.17 1010.89 1011.71 1012.56 1013.39 1014.14 1014.78 1015.28 1015.66 1015.92 1016.08 1016.18 1016.25 1016.31 1016.37 1016.45 1016.54 1016.62 1016.70 1016.76 1016.79 1016.80 1016.78 1016.75 1016.71 1016.66 1016.59 1016.49 1016.36 1016.17 1015.92 1015.59 1015.21 1014.78
1010.49 1010.19 1009.82 1009.42 1009.03 1008.71 1008.54 1008.55 1008.77 1009.21 1009.85 1010.63 1011.51 1012.41 1013.27 1014.03 1014.67 1015.15 1015.50 1015.72 1015.85 1015.92 1015.98 1016.04 1016.11 1016.21 1016.31 1016.42 1016.52 1016.59 1016.63 1016.64 1016.63 1016.59 1016.54 1016.47 1016.38 1016.25 1016.08 1015.85 1015.55 1015.18 1014.75 1014.27
1010.02 1009.64 1009.22 1008.79 1008.41 1008.12 1007.99 1008.05 1008.33 1008.83 1009.51 1010.34 1011.25 1012.17 1013.04 1013.80 1014.43 1014.91 1015.25 1015.47 1015.60 1015.69 1015.76 1015.84 1015.94 1016.06 1016.18 1016.30 1016.41 1016.48 1016.52 1016.52 1016.49 1016.44 1016.36 1016.27 1016.15 1015.99 1015.78 1015.51 1015.16 1014.74 1014.26 1013.75
1009.47 1008.99 1008.52 1008.08 1007.72 1007.49 1007.42 1007.55 1007.90 1008.45 1009.17 1010.02 1010.94 1011.86 1012.73 1013.48 1014.11 1014.59 1014.95 1015.19 1015.36 1015.48 1015.59 1015.71 1015.84 1015.98 1016.12 1016.24 1016.34 1016.40 1016.42 1016.41 1016.36 1016.28 1016.18 1016.05 1015.90 1015.70 1015.45 1015.13 1014.74 1014.28 1013.76 1013.22
1008.84 1008.27 1007.76 1007.32 1007.01 1006.85 1006.86 1007.08 1007.50 1008.10 1008.86 1009.72 1010.64 1011.54 1012.39 1013.13 1013.76 1014.25 1014.63 1014.91 1015.12 1015.30 1015.46 1015.62 1015.78 1015.94 1016.09 1016.21 1016.29 1016.33 1016.33 1016.29 1016.21 1016.10 1015.97 1015.82 1015.63 1015.39 1015.10 1014.74 1014.31 1013.81 1013.27 1012.71
1008.17 1007.53 1006.99 1006.58 1006.33 1006.26 1006.37 1006.68 1007.18 1007.84 1008.63 1009.50 1010.40 1011.28 1012.10 1012.82 1013.44 1013.94 1014.34 1014.66 1014.92 1015.14 1015.34 1015.54 1015.73 1015.90 1016.05 1016.16 1016.23 1016.24 1016.21 1016.14 1016.04 1015.90 1015.74 1015.55 1015.33 1015.06 1014.73 1014.33 1013.87 1013.35 1012.78 1012.21
1007.48 1006.80 1006.27 1005.91 1005.75 1005.77 1006.00 1006.41 1006.99 1007.71 1008.53 1009.40 1010.28 1011.13 1011.92 1012.61 1013.21 1013.70 1014.11 1014.45 1014.74 1015.00 1015.23 1015.45 1015.65 1015.82 1015.97 1016.07 1016.11 1016.11 1016.06 1015.97 1015.84 1015.68 1015.50 1015.28 1015.02 1014.72 1014.35 1013.92 1013.43 1012.89 1012.32 1011.74
1006.78 1006.11 1005.62 1005.34 1005.28 1005.42 1005.76 1006.28 1006.95 1007.72 1008.57 1009.44 1010.31 1011.12 1011.87 1012.52 1013.09 1013.56 1013.96 1014.30 1014.60 1014.86 1015.10 1015.33 1015.53 1015.70 1015.83 1015.91 1015.95 1015.93 1015.87 1015.76 1015.62 1015.44 1015.23 1014.99 1014.70 1014.36 1013.97 1013.51 1013.00 1012.44 1011.86 1011.28
1006.07 1005.45 1005.05 1004.87 1004.93 1005.19 1005.65 1006.27 1007.02 1007.85 1008.72 1009.60 1010.44 1011.22 1011.92 1012.53 1013.06 1013.50 1013.87 1014.19 1014.47 1014.72 1014.95 1015.16 1015.34 1015.50 1015.62 1015.69 1015.72 1015.70 1015.63 1015.52 1015.37 1015.18 1014.96 1014.69 1014.37 1014.00 1013.57 1013.09 1012.55 1011.98 1011.39 1010.81
1005.35 1004.83 1004.54 1004.48 1004.65 1005.04 1005.61 1006.32 1007.13 1008.01 1008.90 1009.78 1010.60 1011.35 1012.02 1012.59 1013.07 1013.47 1013.81 1014.10 1014.34 1014.56 1014.76 1014.95 1015.11 1015.24 1015.35 1015.41 1015.44 1015.42 1015.35 1015.24 1015.09 1014.90 1014.66 1014.36 1014.01 1013.61 1013.15 1012.63 1012.07 1011.49 1010.89 1010.32
1004.61 1004.23 1004.06 1004.13 1004.42 1004.91 1005.56 1006.35 1007.21 1008.12 1009.03 1009.91 1010.72 1011.44 1012.08 1012.62 1013.07 1013.43 1013.73 1013.98 1014.19 1014.37 1014.54 1014.69 1014.82 1014.93 1015.02 1015.08 1015.11 1015.09 1015.04 1014.93 1014.78 1014.58 1014.32 1014.00 1013.61 1013.17 1012.67 1012.13 1011.54 1010.95 1010.35 1009.78
1003.85 1003.61 1003.59 1003.78 1004.17 1004.75 1005.47 1006.31 1007.20 1008.13 1009.04 1009.92 1010.72 1011.43 1012.05 1012.57 1013.00 1013.34 1013.61 1013.83 1014.00 1014.15 1014.28 1014.39 1014.49 1014.58 1014.65 1014.71 1014.73 1014.72 1014.67 1014.58 1014.42 1014.20 1013.92 1013.57 1013.15 1012.66 1012.13 1011.55 1010.95 1010.34 1009.74 1009.18
1003.07 1002.99 1003.11 1003.42 1003.91 1004.55 1005.31 1006.17 1007.08 1008.00 1008.92 1009.78 1010.58 1011.29 1011.90 1012.42 1012.84 1013.17 1013.43 1013.63 1013.77 1013.89 1013.98 1014.06 1014.13 1014.19 1014.25 1014.29 1014.32 1014.31 1014.26 1014.16 1013.99 1013.76 1013.45 1013.06 1012.60 1012.08 1011.50 1010.89 1010.27 1009.66 1009.07 1008.53
1002.27 1002.37 1002.64 1003.06 1003.62 1004.31 1005.10 1005.96 1006.86 1007.78 1008.67 1009.53 1010.32 1011.03 1011.65 1012.18 1012.60 1012.94 1013.19 1013.37 1013.50 1013.59 1013.65 1013.70 1013.74 1013.78 1013.81 1013.84 1013.86 1013.84 1013.78 1013.67 1013.49 1013.24 1012.89 1012.47 1011.97 1011.41 1010.80 1010.17 1009.54 1008.93 1008.36 1007.85
1001.51 1001.79 1002.20 1002.73 1003.36 1004.09 1004.88 1005.73 1006.61 1007.50 1008.37 1009.21 1010.00 1010.71 1011.33 1011.87 1012.31 1012.65 1012.90 1013.08 1013.19 1013.26 1013.29 1013.31 1013.32 1013.33 1013.34 1013.35 1013.35 1013.32 1013.25 1013.12 1012.92 1012.64 1012.27 1011.81 1011.28 1010.69 1010.05 1009.41 1008.77 1008.18 1007.64 1007.18
1000.82 1001.28 1001.84 1002.47 1003.17 1003.92 1004.72 1005.55 1006.40 1007.25 1008.09 1008.90 1009.67 1010.37 1011.00 1011.54 1011.98 1012.32 1012.58 1012.75 1012.84 1012.88 1012.89 1012.88 1012.86 1012.84 1012.83 1012.82 1012.80 1012.75 1012.67 1012.52 1012.31 1012.01 1011.61 1011.13 1010.57 1009.96 1009.31 1008.66 1008.04 1007.46 1006.96 1006.55
1000.26 1000.90 1001.59 1002.32 1003.08 1003.86 1004.66 1005.47 1006.28 1007.09 1007.88 1008.65 1009.39 1010.07 1010.68 1011.20 1011.64 1011.97 1012.22 1012.37 1012.45 1012.47 1012.45 1012.41 1012.36 1012.32 1012.28 1012.25 1012.22 1012.16 1012.07 1011.92 1011.69 1011.38 1010.98 1010.48 1009.92 1009.30 1008.65 1008.01 1007.40 1006.85 1006.39 1006.02
999.87 1000.66 1001.48 1002.31 1003.13 1003.93 1004.72 1005.50 1006.27 1007.02 1007.76 1008.48 1009.17 1009.80 1010.37 1010.87 1011.28 1011.59 1011.81 1011.94 1011.99 1011.99 1011.95 1011.89 1011.82 1011.76 1011.72 1011.68 1011.65 1011.60 1011.51 1011.36 1011.14 1010.84 1010.44 1009.95 1009.39 1008.78 1008.14 1007.51 1006.92 1006.40 1005.97 1005.64
999.68 1000.61 1001.53 1002.43 1003.29 1004.10 1004.88 1005.63 1006.34 1007.04 1007.72 1008.37 1008.99 1009.56 1010.08 1010.52 1010.89 1011.16 1011.35 1011.45 1011.48 1011.46 1011.40 1011.33 1011.26 1011.21 1011.17 1011.15 1011.13 1011.10 1011.03 1010.91 1010.72 1010.44 1010.07 1009.60 1009.06 1008.47 1007.85 1007.24 1006.67 1006.17 1005.76 1005.45
999.71 1000.73 1001.72 1002.66 1003.54 1004.35 1005.10 1005.81 1006.47 1007.09 1007.70 1008.27 1008.81 1009.31 1009.76 1010.14 1010.45 1010.67 1010.82 1010.90 1010.91 1010.88 1010.82 1010.76 1010.71 1010.68 1010.67 1010.69 1010.71 1010.72 1010.70 1010.63 1010.48 1010.25 1009.92 1009.49 1008.99 1008.43 1007.84 1007.25 1006.69 1006.20 1005.79 1005.50
999.94 1000.99 1002.01 1002.96 1003.83 1004.62 1005.33 1005.98 1006.57 1007.13 1007.65 1008.14 1008.60 1009.01 1009.39 1009.70 1009.95 1010.14 1010.25 1010.31 1010.32 1010.29 1010.26 1010.23 1010.21 1010.23 1010.28 1010.35 1010.43 1010.51 1010.55 1010.54 1010.46 1010.29 1010.02 1009.65 1009.19 1008.67 1008.11 1007.54 1007.00 1006.50 1006.09 1005.78
1000.32 1001.36 1002.35 1003.27 1004.11 1004.85 1005.51 1006.09 1006.62 1007.10 1007.54 1007.94 1008.32 1008.67 1008.97 1009.23 1009.43 1009.58 1009.68 1009.73 1009.75 1009.75 1009.76 1009.78 1009.82 1009.91 1010.02 1010.17 1010.33 1010.48 1010.61 1010.67 1010.67 1010.57 1010.36 1010.06 1009.65 1009.18 1008.65 1008.10 1007.56 1007.06 1006.63 1006.29
1000.79 1001.77 1002.71 1003.56 1004.33 1005.00 1005.59 1006.11 1006.57 1006.97 1007.34 1007.68 1007.99 1008.27 1008.52 1008.74 1008.91 1009.04 1009.14 1009.21 1009.26 1009.31 1009.37 1009.46 1009.58 1009.74 1009.94 1010.17 1010.41 1010.65 1010.85 1010.99 1011.06 1011.03 1010.90 1010.65 1010.31 1009.88 1009.38 1008.86 1008.33 1007.82 1007.37 1006.99
1001.27 1002.17 1003.01 1003.78 1004.47 1005.06 1005.58 1006.03 1006.42 1006.77 1007.08 1007.37 1007.63 1007.87 1008.09 1008.28 1008.45 1008.59 1008.70 1008.81 1008.90 1009.01 1009.14 1009.30 1009.50 1009.74 1010.02 1010.32 1010.64 1010.95 1011.22 1011.44 1011.57 1011.61 1011.54 1011.35 1011.06 1010.68 1010.22 1009.72 1009.20 1008.70 1008.23 1007.83
Thickness
5683 5693 5695 5694 5696 5698 5688 5680 5671 5676 5677 5683 5686 5688 5688 5687 5683 5680 5676 5674 5671 5667 5664 5662 5659 5656 5653 5649 5646 5642 5637 5632 5628 5625 5622 5619 5615 5611 5608 5604 5601 5598 5595 5591
5676 5689 5690 5690 5696 5697 5695 5691 5683 5680 5677 5689 5688 5686 5684 5681 5678 5675 5673 5672 5669 5665 5662 5659 5657 5654 5651 5647 5643 5639 5634 5630 5627 5623 5619 5615 5612 5608 5605 5601 5598 5595 5592 5588
5658 5676 5678 5672 5689 5692 5690 5692 5686 5675 5679 5684 5681 5680 5678 5676 5675 5673 5671 5668 5665 5662 5658 5656 5654 5651 5647 5643 5640 5635 5631 5628 5624 5621 5616 5613 5610 5605 5602 5598 5595 5591 5588 5585
5650 5658 5651 5675 5695 5695 5689 5688 5688 5684 5682 5681 5680 5679 5677 5674 5671 5668 5666 5663 5660 5657 5654 5651 5649 5647 5644 5640 5636 5632 5628 5626 5622 5618 5615 5611 5607 5603 5599 5596 5592 5588 5585 5583
5642 5642 5654 5676 5688 5689 5681 5677 5684 5680 5679 5678 5677 5672 5667 5669 5668 5665 5662 5659 5655 5653 5650 5647 5646 5643 5640 5636 5633 5630 5627 5623 5620 5617 5612 5608 5604 5600 5597 5593 5590 5587 5584 5582
5642 5639 5641 5667 5689 5696 5684 5667 5681 5679 5674 5672 5670 5657 5659 5664 5663 5659 5656 5652 5650 5648 5646 5644 5642 5640 5636 5632 5629 5627 5625 5622 5619 5615 5611 5607 5603 5599 5596 5592 5589 5586 5584 5582
5640 5638 5651 5676 5688 5688 5662 5661 5677 5677 5674 5670 5665 5662 5662 5661 5657 5654 5651 5648 5646 5643 5641 5641 5639 5636 5633 5629 5627 5625 5623 5620 5616 5613 5609 5605 5601 5598 5595 5591 5588 5585 5583 5581
5638 5635 5645 5678 5679 5669 5665 5673 5672 5671 5670 5667 5664 5661 5659 5656 5652 5649 5646 5644 5642 5639 5637 5638 5637 5633 5630 5627 5626 5624 5621 5617 5614 5610 5607 5605 5600 5596 5593 5590 5586 5584 5581 5580
5644 5648 5664 5675 5674 5675 5673 5670 5669 5666 5666 5663 5658 5655 5653 5650 5647 5645 5643 5640 5639 5637 5635 5634 5634 5631 5627 5626 5625 5621 5617 5614 5611 5608 5605 5602 5598 5595 5592 5589 5585 5583 5581 5579
5648 5658 5666 5670 5672 5673 5673 5670 5668 5666 5663 5660 5655 5652 5649 5646 5643 5641 5640 5637 5636 5634 5633 5631 5631 5630 5628 5626 5624 5619 5615 5611 5608 5605 5602 5600 5597 5594 5591 5588 5586 5584 5581 5580
5643 5654 5661 5666 5667 5668 5669 5668 5666 5663 5661 5657 5653 5649 5646 5643 5641 5640 5639 5637 5636 5633 5632 5631 5630 5628 5627 5625 5622 5617 5613 5609 5606 5603 5601 5598 5595 5593 5592 5591 5588 5585 5583 5581
5641 5653 5652 5657 5664 5667 5664 5663 5662 5660 5657 5655 5652 5648 5645 5641 5639 5638 5637 5636 5634 5632 5631 5630 5628 5626 5625 5623 5621 5615 5611 5608 5605 5602 5599 5597 5594 5593 5594 5592 5592 5589 5586 5583
5656 5661 5660 5663 5665 5666 5663 5662 5661 5659 5656 5652 5650 5647 5644 5640 5638 5638 5636 5635 5633 5633 5632 5630 5628 5626 5624 5623 5620 5615 5611 5608 5605 5602 5599 5597 5595 5592 5591 5592 5593 5591 5589 5586
5662 5660 5657 5661 5660 5663 5663 5662 5660 5658 5655 5652 5649 5646 5643 5640 5638 5637 5636 5635 5635 5633 5631 5629 5627 5626 5625 5622 5619 5615 5612 5609 5606 5603 5600 5598 5596 5594 5592 5590 5589 5588 5589 5587
5664 5663 5660 5661 5661 5660 5660 5658 5655 5652 5651 5648 5647 5645 5642 5639 5637 5637 5637 5636 5635 5632 5631 5630 5627 5626 5625 5623 5619 5615 5612 5609 5606 5604 5602 5599 5597 5595 5593 5591 5589 5587 5586 5585
5663 5663 5663 5661 5659 5658 5657 5655 5652 5650 5649 5647 5645 5644 5642 5641 5639 5638 5637 5636 5633 5631 5630 5629 5627 5627 5626 5623 5619 5616 5613 5611 5608 5605 5602 5600 5598 5596 5593 5591 5589 5586 5585 5583
5658 5657 5658 5657 5658 5657 5656 5655 5654 5652 5649 5647 5646 5645 5643 5641 5639 5637 5637 5636 5635 5633 5631 5629 5628 5628 5626 5624 5620 5616 5614 5611 5610 5606 5603 5601 5599 5597 5594 5591 5589 5587 5585 5583
5664 5664 5664 5662 5660 5658 5657 5657 5657 5654 5651 5651 5650 5647 5644 5641 5639 5638 5637 5637 5635 5633 5632 5632 5631 5629 5627 5624 5621 5618 5615 5611 5609 5607 5605 5603 5600 5598 5595 5592 5590 5588 5585 5582
5667 5667 5667 5666 5664 5662 5660 5659 5658 5657 5655 5654 5652 5648 5646 5644 5642 5641 5639 5636 5634 5632 5632 5634 5632 5629 5627 5625 5622 5618 5615 5612 5610 5608 5606 5604 5602 5599 5596 5593 5590 5587 5583 5579
5669 5669 5669 5668 5667 5664 5662 5661 5660 5658 5657 5656 5653 5650 5647 5646 5645 5643 5640 5638 5636 5636 5636 5635 5633 5630 5628 5626 5623 5619 5616 5613 5611 5608 5606 5604 5601 5599 5597 5594 5590 5586 5582 5577
5669 5669 5669 5668 5667 5666 5665 5663 5661 5659 5658 5657 5654 5652 5650 5649 5647 5644 5641 5638 5640 5640 5638 5637 5634 5631 5629 5627 5624 5620 5616 5613 5611 5608 5606 5604 5601 5599 5596 5592 5588 5584 5580 5575
5669 5669 5669 5669 5667 5666 5666 5665 5664 5662 5660 5659 5657 5655 5652 5650 5648 5646 5644 5643 5643 5643 5640 5637 5635 5633 5631 5628 5623 5620 5616 5614 5611 5609 5606 5603 5600 5597 5593 5589 5585 5581 5577 5572
5669 5670 5669 5669 5668 5667 5666 5666 5666 5665 5663 5661 5660 5658 5655 5653 5650 5647 5644 5646 5646 5644 5641 5639 5637 5635 5631 5627 5623 5619 5617 5614 5611 5609 5605 5602 5598 5594 5590 5586 5582 5577 5572 5568
5668 5669 5670 5670 5669 5667 5665 5666 5667 5667 5666 5665 5664 5662 5659 5655 5653 5653 5653 5652 5649 5646 5643 5640 5638 5634 5630 5626 5622 5619 5616 5613 5610 5607 5604 5600 5596 5592 5587 5582 5578 5573 5569 5564
5668 5670 5670 5669 5668 5667 5667 5667 5667 5667 5666 5665 5665 5665 5664 5661 5658 5657 5655 5653 5651 5647 5644 5641 5638 5634 5630 5625 5621 5618 5615 5611 5608 5604 5600 5596 5592 5588 5583 5579 5574 5569 5564 5559
5668 5670 5671 5671 5671 5670 5669 5669 5667 5667 5666 5665 5665 5665 5665 5663 5662 5660 5657 5655 5652 5649 5644 5641 5637 5633 5628 5624 5620 5617 5613 5609 5606 5602 5597 5593 5588 5584 5579 5574 5569 5563 5558 5552
5668 5671 5670 5670 5672 5673 5673 5671 5670 5669 5669 5668 5666 5666 5666 5665 5663 5661 5658 5655 5652 5648 5645 5641 5637 5633 5628 5624 5620 5616 5612 5608 5604 5599 5594 5590 5585 5580 5574 5569 5563 5558 5552 5547